Scarborough,

5:56 PM AST on May 26, 2017 (GMT -0400)
Scarborough

Weather History for TTCP - August, 2014

Change the Weather History Date:

Monday, August 4, 2014

  Actual Average Record
Temperature  
Mean Temperature 80 °F -  
Max Temperature 86 °F 85 °F 89 °F (1998)
Min Temperature 75 °F 75 °F 73 °F (1996)
Cooling Degree Days 16    
Growing Degree Days 30 (Base 50)    
Moisture  
Dew Point 74 °F    
Average Humidity 79    
Maximum Humidity 89    
Minimum Humidity 66    
Precipitation  
Precipitation 0.00 in - - ()
Sea Level Pressure  
Sea Level Pressure 29.95 in    
Wind  
Wind Speed 3 mph ()    
Max Wind Speed 15 mph    
Max Gust Speed -    
Visibility 6.1 miles    
Events      
Averages and records for this station are not official NWS values.
T = Trace of Precipitation, MM = Missing Value Source: Averaged Metar Reports

Daily Weather History Graph

Daily Weather History Graph

Search for Another Location

Airport or City:

Trip Planner

Search our weather history database for the weather conditions in past years. The results will help you decide how hot, cold, wet, or windy it might be!

Date:

Astronomy

Aug. 04, 2014 Rise Set
Actual Time 5:51 AM AST 6:26 PM AST
Civil Twilight 5:29 AM AST 6:49 PM AST
Nautical Twilight 5:03 AM AST 7:15 PM AST
Astronomical Twilight 4:37 AM AST 7:41 PM AST
Moon 12:37 PM AST (8/4) No Moon Set
Length of Visible Light 13h 19m
Length of Day
12h 34m
First Quarter, 57% of the Moon is Illuminated
Aug 4
First Quarter
Aug 10
Full
Aug 17
Last Quarter
Aug 25
New
Sep 2
First Quarter

Hourly Weather History & Observations

Time (AST) Temp. Heat Index Dew Point Humidity Pressure Visibility Wind Dir Wind Speed Gust Speed Precip Events Conditions
12:00 AM 77.0 °F - 71.6 °F 83% 29.95 in 6.2 mi Calm Calm - N/A   Scattered Clouds
1:00 AM 77.0 °F - 71.6 °F 83% 29.95 in 6.2 mi Calm Calm - N/A   Scattered Clouds
2:00 AM 77.0 °F - 71.6 °F 83% 29.92 in 6.2 mi Calm Calm - N/A   Partly Cloudy
3:00 AM 75.2 °F - 71.6 °F 89% 29.92 in 6.2 mi Calm Calm - N/A   Scattered Clouds
5:00 AM 75.2 °F - 71.6 °F 89% 29.92 in 6.2 mi Calm Calm - N/A   Partly Cloudy
6:00 AM 75.2 °F - 71.6 °F 89% 29.95 in 6.2 mi Calm Calm - N/A   Scattered Clouds
7:00 AM 78.8 °F - 75.2 °F 89% 29.95 in 6.2 mi Calm Calm - N/A   Scattered Clouds
8:00 AM 78.8 °F - 75.2 °F 89% 29.98 in 6.2 mi East 8.1 mph - N/A   Scattered Clouds
9:00 AM 82.4 °F 89.5 °F 75.2 °F 79% 29.98 in 4.3 mi East 12.7 mph - N/A   Mostly Cloudy
10:00 AM 82.4 °F 89.5 °F 75.2 °F 79% 29.98 in 6.2 mi Calm Calm - N/A   Scattered Clouds
11:00 AM 84.2 °F 92.3 °F 75.2 °F 74% 29.98 in 6.2 mi ESE 5.8 mph - N/A   Scattered Clouds
12:00 PM 84.2 °F 92.3 °F 75.2 °F 74% 29.98 in 6.2 mi ESE 11.5 mph - N/A   Scattered Clouds
1:00 PM 86.0 °F 95.1 °F 75.2 °F 70% 29.95 in 6.2 mi East 11.5 mph - N/A   Scattered Clouds
2:00 PM 86.0 °F 93.4 °F 73.4 °F 66% 29.92 in 6.2 mi ESE 15.0 mph - N/A   Partly Cloudy
3:00 PM 86.0 °F 95.1 °F 75.2 °F 70% 29.92 in 6.2 mi ESE 15.0 mph - N/A   Partly Cloudy
4:00 PM 86.0 °F 93.4 °F 73.4 °F 66% 29.92 in 6.2 mi ESE 12.7 mph - N/A   Partly Cloudy
5:00 PM 84.2 °F 92.3 °F 75.2 °F 74% 29.92 in 6.2 mi East 10.4 mph - N/A   Partly Cloudy
6:00 PM 84.2 °F 92.3 °F 75.2 °F 74% 29.92 in 6.2 mi East 10.4 mph - N/A   Partly Cloudy
7:00 PM 80.6 °F 85.4 °F 73.4 °F 79% 29.95 in 6.2 mi East 3.5 mph - N/A   Partly Cloudy
8:00 PM 80.6 °F 86.2 °F 75.2 °F 84% 29.95 in 6.2 mi East 4.6 mph - N/A   Partly Cloudy
9:00 PM 80.6 °F 85.4 °F 73.4 °F 79% 29.95 in 6.2 mi Calm Calm - N/A   Partly Cloudy
10:00 PM 80.6 °F 85.4 °F 73.4 °F 79% 29.98 in 6.2 mi Calm Calm - N/A   Partly Cloudy
11:00 PM 80.6 °F 85.4 °F 73.4 °F 79% 29.98 in 6.2 mi Calm Calm - N/A   Partly Cloudy